Temp
28 27 27 26 26 26 25 27 27 27 27 27 26 24 22 22 22 21 22 22 22 21 21 21 20 20 20 19 19 19 18 18 18 18 18 18 17 18 17 15 14 13 13
30 28 27 27 26 26 26 26 27 27 27 26 25 22 22 22 22 21 22 22 22 21 21 21 20 20 19 19 19 18 18 18 17 16 17 17 17 16 15 14 12 12 12
31 29 28 27 27 26 26 26 26 26 26 25 24 22 22 22 22 22 22 22 22 21 21 21 20 20 19 19 18 17 17 17 16 16 16 16 16 15 14 12 11 11 12
31 30 28 28 27 27 26 26 26 26 26 25 23 21 21 22 22 22 22 22 21 21 21 20 20 20 19 19 17 17 16 16 16 16 15 15 14 14 12 11 11 11 12
32 30 28 28 28 27 27 26 26 25 25 24 23 22 22 22 22 22 22 22 21 21 20 20 20 19 19 18 17 16 15 15 15 15 14 14 13 12 11 10 10 11 11
32 30 29 28 27 27 26 26 26 25 25 23 22 23 22 22 23 23 22 21 21 21 20 20 19 19 18 17 16 17 16 15 15 14 14 12 12 10 10 9 10 11 13
31 30 29 28 27 27 27 26 25 24 23 23 22 22 22 22 22 22 22 21 20 20 20 19 19 19 18 17 16 16 15 15 15 15 13 11 10 9 9 9 10 11 13
30 29 28 28 27 26 25 24 23 22 21 21 22 22 22 22 21 21 21 20 19 19 19 19 19 18 18 16 16 15 14 15 15 14 13 13 12 10 9 9 10 11 13
29 28 28 26 25 25 24 23 22 21 21 21 22 22 22 21 21 20 20 19 20 20 20 20 19 18 16 16 15 14 14 14 14 15 14 14 14 12 11 9 10 11 12
29 27 25 25 25 23 23 22 22 21 21 21 21 21 21 21 19 19 19 19 20 20 20 19 18 16 16 15 14 13 13 14 14 15 15 15 15 14 11 10 10 10 11
26 24 24 24 23 23 23 22 22 21 21 22 21 21 21 21 20 19 19 18 18 18 19 18 16 16 15 15 14 14 14 14 14 15 16 15 15 15 14 11 11 10 11
25 24 23 23 23 22 22 22 22 21 21 21 21 21 20 19 19 19 18 18 17 18 17 17 17 16 16 15 15 15 14 14 14 15 15 15 14 14 15 13 12 11 10
25 24 24 23 22 21 21 21 21 21 21 21 21 20 19 18 18 17 18 17 17 17 17 17 17 16 16 16 16 15 14 13 14 15 15 14 14 14 15 14 13 13 10
23 22 21 21 21 21 21 21 22 22 21 21 20 19 19 17 17 17 17 18 17 17 16 17 17 17 17 16 16 14 13 13 13 14 14 14 15 15 15 14 13 12 10
23 22 22 22 21 21 21 20 20 20 21 21 20 20 19 17 17 18 18 17 17 17 17 18 17 17 16 16 15 15 13 13 13 14 14 14 14 15 15 15 14 14 11
23 23 23 22 20 19 18 17 18 19 19 19 20 20 18 18 17 18 18 18 17 17 17 17 16 16 15 15 15 14 13 13 13 13 13 14 14 14 15 14 14 14 14
25 24 22 22 20 19 17 16 14 15 17 18 18 19 19 17 17 18 18 17 17 16 17 16 15 15 14 14 14 13 13 12 12 12 12 12 12 13 14 15 14 15 14
22 22 22 21 20 19 19 18 17 17 15 14 16 17 17 17 17 17 17 16 17 17 16 15 15 14 13 13 13 12 12 12 11 12 12 12 13 12 13 14 14 15 15
22 22 21 21 20 20 20 19 19 19 17 13 13 14 15 15 16 16 16 16 18 17 16 15 14 14 13 12 12 13 13 12 12 12 12 13 13 14 14 14 13 13 14
21 22 22 23 22 21 21 20 20 19 17 15 14 14 13 15 15 16 17 17 16 16 15 14 13 13 13 12 12 13 13 12 12 12 12 13 13 14 14 14 13 12 12
22 22 22 23 23 23 22 22 20 19 19 17 17 15 14 16 18 18 17 16 16 15 14 14 14 13 12 12 12 12 12 12 11 11 11 13 12 13 14 14 14 13 12
23 23 23 23 22 22 22 21 20 20 20 19 18 16 16 16 18 18 16 15 14 14 13 13 13 12 12 11 11 10 10 10 10 10 11 12 12 12 13 13 13 13 13
24 24 24 23 23 22 21 20 20 20 20 19 17 16 16 17 17 17 16 15 14 13 13 13 12 12 11 10 9 8 7 7 8 9 10 11 12 12 13 13 13 13 13
25 24 25 24 23 22 21 20 19 19 18 18 17 16 17 16 16 16 16 15 14 13 12 11 11 10 10 9 8 8 8 8 7 8 9 9 11 12 13 13 13 12 13
24 24 23 22 22 22 21 20 20 20 19 19 18 18 16 15 15 16 15 14 14 13 13 12 11 9 8 7 8 8 8 8 8 9 10 11 11 11 12 12 13 12 12
22 22 22 22 21 20 20 19 19 19 19 18 16 16 15 15 16 16 15 15 14 13 12 11 11 10 8 8 8 8 8 8 9 9 10 10 11 10 11 12 12 12 12
Height
754 760 764 768 772 777 781 784 787 790 792 794 792 796 802 806 808 809 806 813 814 813 814 812 814 815 814 813 810 807 805 802 796 791 787 781 775 770 763 757 748 742 736
746 752 757 763 767 770 774 777 782 785 787 788 791 793 800 802 803 805 807 809 808 809 811 812 812 812 811 810 808 805 802 798 795 788 783 777 772 766 757 749 740 731 725
739 744 751 755 760 763 768 772 776 780 782 785 788 790 795 800 802 801 806 808 808 808 808 809 810 809 808 807 804 802 800 795 792 787 779 776 769 762 748 739 729 720 714
730 737 743 748 753 757 762 766 770 774 777 780 784 789 791 797 799 802 805 805 807 808 808 808 809 807 805 804 802 800 797 793 788 783 779 772 767 758 746 734 718 713 704
722 729 735 742 747 752 756 761 765 769 772 775 779 781 784 784 789 794 797 799 801 805 806 807 807 804 803 801 798 797 794 792 785 780 776 771 764 751 741 729 717 705 694
716 723 731 737 743 748 752 756 761 764 767 771 772 777 782 786 785 792 795 800 801 803 803 805 805 803 801 798 798 795 793 790 784 779 776 771 763 753 739 726 714 702 690
713 720 727 734 740 745 749 753 756 760 764 768 772 776 781 783 787 787 791 795 796 799 800 801 801 799 796 795 794 793 791 789 784 779 775 773 763 753 739 725 713 702 692
711 718 724 732 738 743 749 753 757 760 766 773 779 782 784 786 789 791 793 795 798 797 798 798 796 796 792 792 790 789 788 787 782 777 774 770 766 753 739 728 716 703 690
711 718 726 734 740 746 752 756 760 765 770 773 770 785 789 791 792 791 794 795 796 796 795 795 794 793 792 790 788 787 786 783 778 773 770 767 762 751 740 727 714 704 693
714 720 728 734 740 745 751 756 761 765 769 779 781 775 787 792 793 795 792 795 796 794 794 791 791 793 792 789 787 786 783 779 774 768 766 764 759 752 743 732 723 712 702
715 723 731 737 742 743 747 754 754 751 763 764 771 767 773 776 779 789 788 793 794 793 793 793 792 793 792 789 788 784 781 778 773 769 765 762 756 749 744 737 728 719 710
717 727 734 738 738 749 742 743 757 763 759 766 775 774 777 776 775 781 785 791 794 793 794 790 792 792 791 788 787 784 781 778 773 770 767 763 757 751 745 741 734 725 716
721 727 732 736 744 749 756 755 757 767 766 769 775 778 775 778 782 785 784 789 791 792 793 794 790 790 790 788 786 783 781 778 775 771 768 764 760 754 748 742 738 731 722
726 729 736 735 739 748 754 753 755 758 757 764 769 775 780 779 778 783 786 786 789 790 792 790 790 789 789 788 786 784 782 780 777 775 771 767 761 755 749 744 740 735 728
731 733 738 737 740 745 747 751 756 758 759 759 762 770 777 780 782 786 784 786 789 789 790 790 789 789 789 788 786 785 783 781 779 777 773 768 763 759 754 750 744 741 737
729 732 736 738 741 743 745 748 752 757 755 762 764 767 771 776 780 782 783 784 787 789 791 790 789 790 789 788 787 786 785 784 782 780 776 772 766 762 759 754 750 747 744
729 732 737 741 745 747 751 755 754 762 763 762 767 768 770 776 779 779 784 787 788 791 791 791 791 791 790 790 789 788 787 786 784 782 779 775 771 766 763 759 755 752 749
732 735 738 741 744 747 752 756 756 759 761 766 769 770 774 777 779 781 785 787 790 790 791 792 792 792 792 791 791 790 789 788 786 784 781 778 775 771 767 763 761 758 755
735 737 738 741 744 745 749 753 756 760 763 766 772 776 778 779 782 784 787 788 790 791 793 793 793 793 793 792 792 791 790 789 788 786 783 780 777 774 771 767 765 762 760
736 735 734 737 742 744 746 751 754 760 765 770 774 777 779 782 785 786 788 790 793 794 795 794 794 794 794 794 794 792 791 790 790 788 786 783 779 776 774 772 770 767 764
733 736 736 737 739 741 745 749 753 759 763 768 772 776 778 781 784 786 788 792 794 795 796 795 795 796 795 795 795 793 792 792 791 790 788 785 782 779 777 776 775 773 769
732 733 736 735 737 740 742 746 752 755 759 764 768 774 778 781 783 786 790 793 796 796 796 797 797 798 798 797 796 796 794 794 794 792 790 788 786 783 781 779 778 777 774
729 731 734 735 737 738 741 745 752 755 758 762 767 774 778 781 784 787 789 793 795 796 798 799 799 800 800 799 798 797 796 795 795 795 792 790 789 786 784 782 782 779 778
727 729 730 733 734 738 741 747 750 754 759 762 767 774 778 781 785 787 791 793 796 798 800 800 801 801 802 801 800 798 797 795 794 794 793 791 791 789 787 785 785 784 782
727 729 732 736 737 738 742 745 748 752 757 762 767 771 776 782 786 788 790 794 798 799 801 801 802 803 803 802 801 800 798 797 796 796 795 793 793 791 790 789 787 787 786
730 732 735 738 740 741 744 746 749 753 756 761 766 770 776 781 785 788 791 795 798 800 802 803 804 805 805 804 802 801 800 799 799 798 796 795 795 793 791 791 790 789 789
Wind_Speed
36 35 33 34 34 31 31 27 31 25 26 23 24 18 15 18 16 17 13 12 8 7 7 7 7 9 12 14 17 17 21 22 16 24 29 32 35 35 35 44 42 40 33
35 35 33 31 31 31 31 31 25 28 23 23 21 16 17 20 19 16 14 13 12 9 7 8 7 9 14 15 14 18 21 21 22 22 31 31 33 38 40 40 45 43 36
35 34 32 31 31 30 29 28 26 25 26 23 22 19 18 22 15 15 15 11 7 6 7 7 8 11 15 11 19 16 19 18 25 23 27 31 32 38 45 41 41 38 34
35 33 32 30 30 28 26 25 25 24 23 23 19 16 19 17 15 13 11 9 7 8 8 6 9 13 13 23 15 16 16 24 22 22 24 26 33 41 39 35 37 35 34
33 31 30 29 26 25 24 24 22 21 19 20 21 20 17 18 17 15 13 9 8 9 5 9 11 13 18 12 8 14 20 24 21 20 19 24 33 42 34 37 34 36 37
30 28 27 25 24 23 22 22 21 20 20 21 22 22 18 17 15 17 14 9 7 5 7 9 10 13 16 12 15 22 25 23 21 15 18 21 31 40 35 34 35 27 5
24 24 23 22 21 21 23 23 22 22 23 23 24 20 17 14 10 17 16 10 7 6 6 10 9 11 15 16 17 24 21 20 19 20 17 19 32 39 36 37 37 33 13
21 22 21 21 19 19 18 17 16 19 17 13 12 12 12 13 11 9 7 7 5 5 8 8 11 12 12 13 18 20 19 18 19 21 21 24 34 47 42 36 31 28 25
20 18 18 19 17 15 14 13 12 13 12 13 15 8 7 9 8 6 3 3 3 8 9 7 12 7 10 15 18 16 17 19 23 22 22 19 31 42 52 40 33 26 17
17 19 18 16 16 15 13 14 12 11 12 8 9 12 8 8 6 3 2 0 7 7 8 5 4 8 15 16 13 13 14 24 27 26 20 24 31 33 41 45 33 26 21
22 20 18 18 17 18 19 19 22 25 21 20 21 19 18 16 12 8 4 3 3 4 7 7 9 17 13 11 11 12 16 21 23 26 11 22 31 36 32 36 43 34 27
24 21 20 19 21 18 27 29 22 20 19 16 13 16 16 14 10 9 5 5 4 4 5 6 12 11 11 12 11 13 15 19 22 22 22 22 30 31 31 23 38 40 31
24 22 22 20 18 21 19 16 16 11 12 13 16 15 17 12 8 7 6 4 1 3 2 9 6 7 8 10 14 14 17 19 21 19 20 21 24 28 26 30 24 39 35
20 22 19 22 22 18 16 17 16 18 14 15 14 15 16 12 10 7 8 6 2 3 5 7 6 6 10 11 12 14 19 20 21 21 21 24 20 30 26 30 11 30 32
18 20 19 22 21 19 16 13 9 11 13 16 17 17 13 14 12 13 9 9 4 2 2 4 7 10 10 13 13 13 15 18 20 20 21 23 25 21 25 26 29 18 25
19 18 17 16 14 17 15 15 13 10 10 6 11 14 16 14 20 15 8 3 4 4 2 7 10 10 12 13 14 14 16 19 19 19 20 23 24 24 18 24 25 23 19
12 17 14 12 12 10 12 14 17 12 11 13 10 10 12 20 15 11 11 10 6 2 4 10 10 11 12 13 13 13 15 18 19 20 20 22 25 24 24 18 22 22 22
10 10 9 9 6 10 12 14 16 15 15 14 14 15 17 18 16 15 12 9 4 6 8 8 9 10 11 11 12 12 12 14 15 15 17 16 22 22 23 22 20 19 19
9 9 10 12 12 13 12 13 12 15 18 17 19 19 18 17 15 11 6 3 8 9 9 11 9 9 10 11 10 10 9 12 15 16 17 18 16 15 19 20 24 25 18
6 7 5 12 15 13 11 10 15 18 19 16 16 15 14 16 10 7 6 8 7 8 8 8 8 8 8 9 9 10 10 13 15 15 18 17 20 18 17 16 20 21 23
7 6 6 7 9 10 9 7 13 18 16 15 17 18 17 14 11 9 11 8 8 8 7 8 9 8 10 10 9 12 11 12 13 15 17 16 17 19 16 18 15 22 22
14 10 10 8 17 16 13 14 15 16 17 17 20 22 17 10 9 8 11 10 9 9 8 7 8 8 9 10 10 10 11 11 12 13 15 16 15 18 16 17 17 16 22
5 15 10 10 13 13 17 16 12 16 18 19 22 21 17 10 11 9 16 12 9 8 7 7 7 8 9 9 10 8 8 7 7 12 10 14 14 18 14 14 16 15 15
6 5 4 6 9 13 17 17 20 16 18 24 21 18 16 15 13 16 13 12 10 9 8 8 9 9 8 9 8 9 11 10 7 6 9 14 11 12 13 13 13 15 15
5 6 9 14 7 10 9 12 10 13 24 22 22 18 18 16 14 11 14 11 10 10 10 10 9 9 8 8 10 11 10 10 11 11 11 11 10 11 11 11 12 13 15
7 8 5 5 5 7 6 15 17 13 16 17 18 22 20 17 15 14 12 12 11 10 10 9 9 9 6 8 11 11 10 7 8 11 12 11 11 10 12 11 12 12 14
Wind_Direction
204 207 209 212 216 219 221 224 226 229 227 232 227 214 201 200 211 227 215 248 223 225 246 272 278 308 303 319 312 313 324 319 309 315 314 313 314 312 313 312 310 307 298
204 207 210 213 214 218 220 224 225 225 226 222 220 220 189 206 212 218 226 237 219 215 239 263 289 304 310 307 321 325 313 319 317 317 312 317 319 318 315 310 309 304 297
206 203 208 211 214 217 218 221 221 225 222 221 221 203 195 209 219 214 228 240 239 244 251 267 300 307 304 318 326 319 314 321 324 315 313 321 321 326 318 310 304 301 295
200 201 203 209 212 216 214 216 218 218 221 219 206 202 209 232 222 223 231 225 237 252 256 285 295 303 328 323 320 316 325 325 320 316 321 325 333 330 319 312 308 305 299
195 195 200 205 210 211 208 211 212 212 213 204 201 212 223 204 211 219 215 208 220 242 278 282 296 323 324 344 335 333 335 324 315 324 322 333 337 333 324 318 311 310 304
188 189 192 198 202 209 207 205 202 202 201 196 199 205 206 211 215 225 201 211 216 247 264 288 313 327 343 348 330 326 328 322 319 341 335 340 339 333 325 323 315 311 314
178 180 184 190 194 200 204 203 200 194 191 192 193 200 201 201 186 184 193 200 203 244 287 299 311 312 318 320 322 329 331 328 338 347 334 342 349 338 335 329 325 318 298
170 175 179 184 189 182 179 182 180 178 178 176 187 195 185 199 182 184 196 190 214 257 274 285 306 306 301 321 333 334 328 331 336 336 336 321 345 0 351 336 323 321 326
170 171 170 168 161 168 177 171 162 157 160 174 168 183 194 180 193 188 188 181 283 286 275 295 298 291 320 330 335 329 332 331 342 343 342 332 346 1 5 350 348 343 345
169 148 144 152 166 170 167 163 163 156 151 144 153 150 174 204 195 260 216 175 300 329 344 350 5 360 340 341 347 338 330 339 339 340 341 352 353 356 3 8 353 348 350
134 133 148 159 158 158 158 167 160 147 148 163 177 169 180 193 199 219 198 218 295 355 354 39 11 356 356 4 348 350 348 350 346 339 333 357 353 359 359 7 16 359 354
131 144 156 157 157 171 156 155 160 167 159 162 173 173 181 182 179 195 187 223 286 341 349 356 348 359 6 4 354 350 3 2 352 349 1 359 355 352 355 4 17 21 14
141 152 147 144 139 151 147 137 147 158 153 173 192 184 169 165 166 194 182 197 127 28 330 323 328 340 357 9 5 32 16 6 354 348 4 350 359 6 1 1 14 23 24
125 127 141 135 136 144 152 156 163 175 178 190 196 197 183 156 161 166 166 151 186 335 318 303 299 355 15 24 17 33 22 14 1 353 359 351 349 10 6 6 13 33 31
141 141 141 147 153 153 144 157 169 182 199 205 207 198 188 183 189 182 169 151 142 351 15 349 48 25 22 25 19 30 31 15 6 1 1 357 0 15 19 12 10 21 47
148 152 158 155 156 157 148 134 144 167 172 145 165 183 186 196 160 160 148 114 88 103 322 48 42 27 25 23 20 23 31 14 9 6 2 360 0 7 20 23 19 16 36
140 143 153 158 160 149 144 141 113 110 121 127 142 152 165 152 150 139 124 112 111 68 54 57 47 33 26 24 25 22 22 19 14 12 12 7 9 4 8 29 23 21 18
108 130 141 152 156 160 179 172 150 144 117 106 124 134 142 139 137 133 132 138 168 102 85 61 50 42 32 29 25 21 23 20 16 15 16 11 22 18 11 16 14 23 24
138 158 168 173 171 173 171 164 175 150 132 122 128 134 135 133 130 125 114 50 72 71 66 79 55 47 38 27 18 11 22 27 13 11 9 8 3 24 25 23 16 12 16
154 137 128 144 166 169 170 132 144 132 127 140 152 148 143 135 142 142 118 91 86 74 69 74 79 57 48 32 10 6 27 34 20 14 3 15 7 17 21 25 36 14 6
144 162 144 161 170 164 166 160 140 157 157 156 158 156 164 174 165 156 129 112 99 92 77 55 57 51 46 38 19 12 28 30 24 12 2 14 12 9 26 24 42 31 15
163 161 190 218 167 174 170 163 161 168 159 169 154 163 182 205 148 137 120 119 106 87 82 74 73 61 53 42 34 24 29 27 20 10 4 13 20 8 23 37 28 43 29
205 169 165 121 158 144 181 170 179 164 165 152 141 155 167 166 164 150 123 115 111 103 95 84 78 68 60 53 36 29 30 16 34 7 355 8 14 7 25 35 33 35 31
181 200 175 130 119 112 113 142 163 162 159 145 146 161 173 146 140 130 124 120 117 117 111 95 84 80 71 58 45 24 30 35 47 34 16 4 20 13 29 23 48 31 38
241 115 83 77 88 135 129 147 156 159 151 158 159 164 146 152 158 147 126 127 132 122 113 111 102 88 74 60 47 40 43 55 54 41 34 28 30 11 35 35 47 45 43
84 89 101 110 120 109 93 139 161 131 146 144 141 149 153 160 164 149 138 146 146 138 127 113 106 104 84 51 45 43 50 72 61 45 43 40 41 36 33 37 47 49 55